Cloud_Cover
21 2 0 0 4 9 18 17 13 0 0 0 0 0 5 0 3 5 33 41 100 71 5 29 84 100 100 100 100 67 78 34 5 4 96 59 13 64 80 63 13 75 11
15 0 0 2 1 17 5 2 0 0 0 0 0 0 2 0 2 5 5 100 47 98 92 98 29 100 100 99 100 100 96 100 46 10 5 9 24 11 90 21 40 73 60
0 0 13 100 54 12 5 5 5 3 0 0 0 0 0 0 0 1 6 98 100 17 99 5 84 98 100 100 100 100 100 82 100 62 46 14 5 58 16 33 34 65 100
4 99 100 100 100 100 63 6 5 29 15 4 2 0 0 0 0 0 0 72 96 100 97 35 10 100 100 100 100 100 100 100 100 100 100 100 35 8 6 5 12 99 26
41 89 100 100 100 100 100 88 100 100 92 28 26 6 4 5 4 3 4 0 74 100 100 100 96 93 100 100 100 100 100 100 100 100 100 100 100 93 40 41 72 96 16
0 14 100 100 100 100 100 44 100 96 92 100 24 64 16 10 14 7 4 5 5 54 99 62 100 100 100 100 100 100 100 100 100 100 100 89 98 100 100 54 48 78 6
16 46 57 84 100 100 100 100 100 100 100 100 100 13 18 5 4 4 10 4 5 6 0 65 30 100 100 100 100 100 100 100 100 100 100 100 100 100 100 100 24 27 6
13 42 95 47 88 100 100 100 100 100 100 100 100 100 100 45 0 0 0 5 5 4 4 9 11 100 100 100 100 100 100 100 100 100 100 100 100 100 100 100 76 64 5
71 60 54 95 98 100 100 100 100 100 100 100 100 100 95 88 86 6 0 0 4 6 56 99 100 100 100 100 100 100 100 100 100 100 100 100 100 100 100 100 63 58 46
91 61 15 60 97 87 78 99 100 79 50 54 28 29 16 66 100 98 45 0 0 4 65 100 100 100 100 100 100 100 100 100 100 100 100 100 100 100 100 100 100 90 100
35 47 59 98 30 16 0 3 3 6 3 2 22 30 2 16 78 100 79 2 0 0 14 80 60 100 100 100 100 100 100 100 100 100 100 100 100 100 100 100 100 83 99
1 38 0 0 0 0 0 0 0 0 0 0 0 7 9 43 86 94 96 44 11 2 0 19 33 100 100 100 100 100 100 100 100 100 100 100 100 100 100 33 92 100 40
0 0 0 0 0 0 0 0 0 0 0 0 0 0 0 2 21 9 5 41 59 2 29 29 38 52 100 100 100 100 100 100 100 100 100 100 100 100 100 100 100 100 6
0 0 0 0 0 0 0 0 0 0 0 15 0 3 10 18 25 24 46 78 76 1 2 4 2 18 54 100 100 100 100 100 100 100 100 100 100 100 100 100 93 99 6
3 2 3 0 0 0 0 0 0 0 0 0 0 0 0 0 8 15 39 20 59 88 26 4 25 5 30 10 94 100 100 100 100 100 100 100 100 100 100 100 100 70 7
5 54 4 0 0 0 0 0 0 0 0 0 0 0 0 0 0 0 13 23 5 35 95 3 2 5 23 58 100 100 100 100 100 100 100 100 100 100 100 100 100 27 5
24 0 0 5 2 0 0 0 0 0 0 0 0 0 0 0 0 0 2 15 5 13 42 0 0 2 20 78 99 100 100 100 100 100 100 100 100 100 100 100 100 47 100
18 83 99 94 2 0 0 0 0 0 0 0 0 0 0 0 0 0 0 4 7 2 31 20 0 0 0 48 100 100 100 100 100 100 100 100 100 100 100 100 100 100 100
32 55 92 10 4 2 0 0 0 0 0 2 0 0 0 0 0 0 0 13 10 3 2 22 6 0 0 36 78 100 100 100 100 100 100 100 100 100 100 100 100 100 100
10 98 19 2 0 0 0 0 0 0 0 2 0 0 0 0 0 0 1 6 0 9 4 16 3 0 0 10 94 100 100 100 100 100 100 100 100 100 100 100 100 100 100
0 2 0 0 0 0 0 0 0 0 0 0 0 0 0 0 0 0 0 4 3 9 6 26 13 0 0 2 38 47 80 100 100 100 100 100 100 100 100 100 100 100 100
2 5 0 0 0 0 0 0 0 0 0 0 0 0 0 0 0 0 0 0 0 1 0 20 14 28 96 79 8 38 70 100 100 100 100 100 100 100 100 100 100 100 100
9 12 31 45 100 1 23 2 0 0 0 0 2 4 2 2 3 0 0 0 76 99 86 33 14 47 90 51 21 21 22 77 100 100 100 100 100 100 100 100 100 100 100
100 100 100 100 56 4 1 0 2 1 5 4 26 100 99 99 5 6 6 12 5 81 100 100 100 58 68 100 25 31 33 45 99 100 100 100 100 100 100 100 100 100 100
100 99 74 91 7 5 56 3 13 36 6 50 100 100 100 100 90 98 46 100 72 100 100 100 100 100 98 18 18 6 7 38 24 100 100 100 100 100 100 100 100 100 100
100 54 86 68 100 85 57 5 30 66 100 100 100 100 100 100 100 100 37 99 100 75 46 5 7 20 2 0 0 5 13 20 30 94 100 100 100 100 100 100 100 100 100